Terminal Aerodrome Forecast
Issued by NWS Buffalo, NY

Home | Current Version | Previous Version | Text Only | Print | Product List | Glossary On
Versions: 1 2 3 4 5 6 7 8 9 10 11 12 13 14 15 16 17 18 19 20 21 22 23 24 25 26 27 28 29 30 31 32 33
608
FTUS41 KBUF 271506 AAA
TAFBUF
TAF AMD
KBUF 271506Z 2715/2812 26006KT P6SM BKN015 OVC045
     FM271800 32006KT P6SM FEW015 BKN040
     FM272200 36004KT P6SM SCT040
     FM280200 VRB03KT P6SM SCT250=

USA.gov is the U.S. government's official web portal to all federal, state and local government web resources and services.